This is the latest recevied weather packets stored in our database for station/object KJ5PEC-13. If no packets are shown the sender has not sent any weather packets the latest 10 day(s).
| Time | Temp. | Humidity | Pressure | Rain* | Wind** | Luminosity | Snow |
|---|---|---|---|---|---|---|---|
| 1788543588 | 23.89° C | 27% | 1030.3 hPa | 0 mm | - | 864 W/m² | - |
| 1788543287 | 23.33° C | 29% | 1030.3 hPa | 0 mm | - | 854 W/m² | - |
| 1788542983 | 24.44° C | 27% | 1030.2 hPa | 0 mm | - | 847 W/m² | - |
| 1788542678 | 23.33° C | 30% | 1030.3 hPa | 0 mm | - | 838 W/m² | - |
| 1788542372 | 23.33° C | 29% | 1030.2 hPa | 0 mm | - | 828 W/m² | - |
| 1788542067 | 23.89° C | 28% | 1030.2 hPa | 0 mm | - | 815 W/m² | - |
| 1788541764 | 23.89° C | 28% | 1030.2 hPa | 0 mm | - | 805 W/m² | - |
| 1788541458 | 23.33° C | 29% | 1030.3 hPa | 0 mm | - | 794 W/m² | - |
| 1788541154 | 22.78° C | 30% | 1030.2 hPa | 0 mm | - | 781 W/m² | - |
| 1788540853 | 22.78° C | 29% | 1030.3 hPa | 0 mm | - | 768 W/m² | - |
| 1788540552 | 22.22° C | 30% | 1030.2 hPa | 0 mm | - | 754 W/m² | - |
| 1788540253 | 22.78° C | 29% | 1030.5 hPa | 0 mm | - | 741 W/m² | - |
| 1788539949 | 23.33° C | 30% | 1030.5 hPa | 0 mm | - | 727 W/m² | - |
| 1788539648 | 22.78° C | 29% | 1030.2 hPa | 0 mm | - | 712 W/m² | - |
| 1788539348 | 22.22° C | 30% | 1030.2 hPa | 0 mm | - | 697 W/m² | - |
| 1788539044 | 22.78° C | 30% | 1030.3 hPa | 0 mm | - | 682 W/m² | - |
| 1788538739 | 22.22° C | 30% | 1030.2 hPa | 0 mm | - | 666 W/m² | - |
| 1788538434 | 22.22° C | 30% | 1030.3 hPa | 0 mm | - | 651 W/m² | - |
| 1788538129 | 21.67° C | 30% | 1030.3 hPa | 0 mm | - | 631 W/m² | - |
| 1788537824 | 21.11° C | 33% | 1030.2 hPa | 0 mm | - | 615 W/m² | - |
| 1788537519 | 20° C | 33% | 1030.1 hPa | 0 mm | - | 597 W/m² | - |
| 1788537214 | 20° C | 35% | 1030.1 hPa | 0 mm | - | 580 W/m² | - |
| 1788536913 | 18.33° C | 35% | 1030.3 hPa | 0 mm | - | 562 W/m² | - |
| 1788536613 | 17.78° C | 36% | 1030.5 hPa | 0 mm | - | 543 W/m² | - |
| 1788536309 | 17.78° C | 38% | 1030.7 hPa | 0 mm | - | 525 W/m² | - |
* Rain latest hour (hover to see other rain measurements)
** Current wind speed in m/s (hover to see current wind gust speed)